Skip Page Navigation
NASA JPL Caltech
NASA Logo - Jet Propulsion Laboratory + View the NASA Portal
+ Center for Near-Earth Object Studies
JPL Home Earth Solar System Stars & Galaxies Technology
JPL Solar System Dynamics
BODIES ORBITS EPHEMERIDES TOOLS PHYSICAL DATA DISCOVERY FAQ SITE MAP
IMPORTANT: The SSD Announcement email list is now available. Major changes are coming in the near future, including possible hostname and/or URL changes. To be notified of such changes, subscribe to this email list.

Please visit this page for more details.


JPL Small-Body Database Browser
Search: [ help ]  
214964 (2007 YX46)
Classification: Main-belt Asteroid          SPK-ID: 2214964
Ephemeris | Orbit Diagram | Orbital Elements | Mission Design | Physical Parameters | Discovery Circumstances | Close-Approach Data ]

[ show orbit diagram ]
Orbital Elements at Epoch 2458600.5 (2019-Apr-27.0) TDB
Reference: JPL 12 (heliocentric ecliptic J2000)
 Element Value Uncertainty (1-sigma)   Units 
e .1275977596206284 5.5329e-08  
a 2.769885933263686 3.5666e-08 au
q 2.416454693774547 1.5919e-07 au
i 4.24445722892893 6.0675e-06 deg
node 113.3783670134311 8.609e-05 deg
peri 274.518033115925 8.9428e-05 deg
M 246.5173055080335 2.6869e-05 deg
tp 2459131.284695679499
(2020-Oct-08.78469568)
0.00012992 TDB
period 1683.802903165526
4.61
3.2522e-05
8.904e-08
d
yr
n .2138017456337704 4.1295e-09 deg/d
Q 3.123317172752826 4.0217e-08 au
  Orbit Determination Parameters
   # obs. used (total)      295  
   data-arc span      6087 days (16.67 yr)  
   first obs. used      2001-08-21  
   last obs. used      2018-04-21  
   planetary ephem.      DE431  
   SB-pert. ephem.      SB431-N16  
   condition code      0  
   norm. resid. RMS      .57093  
   source      ORB  
   producer      Otto Matic  
   solution date      2018-May-07 06:06:59  

Additional Information
 Earth MOID = 1.42503 au 
 Jupiter MOID = 2.321 au 
 T_jup = 3.322 
[ show covariance matrix ]

Ephemeris | Orbit Diagram | Orbital Elements | Mission Design | Physical Parameters | Discovery Circumstances | Close-Approach Data ]

Physical Parameter Table
Parameter Symbol Value Units Sigma Reference Notes
absolute magnitude H 16.1   n/a MPO440134  

214964 (2007 YX46)          Discovered 2007-Dec-30 by Mt. Lemmon Survey at Mount Lemmon
Reference: 20090509/Numbers.arcLast Updated: 2009-05-11

[ show close-approach data ]
Alternate Designations
 2007 YX46 = 2006 SS40 
Ephemeris | Orbit Diagram | Orbital Elements | Mission Design | Physical Parameters | Discovery Circumstances | Close-Approach Data ]
ABOUT SSD CREDITS/AWARDS PRIVACY/COPYRIGHT GLOSSARY LINKS
FirstGov 2019-Dec-07 02:04 UT
(server date/time)  
NASA Home Page
Site Manager:   Ryan S. Park
Webmaster  Alan B. Chamberlin